Location: Elkol
(41.7238°N, 110.6124°W)
Time: 21:08:45
(UTC+00:00)

Explorer 11/Cluster Stage 4 - All Passes

Search period start: 27 May 2022 00:00
Search period end: 06 June 2022 00:00
Orbit: 466 x 1252 km, 28.8° (Epoch: 27 May)

Date Brightness Start Highest point End Pass type
(mag) Time Alt. Az. Time Alt. Az. Time Alt. Az.
27 May - 04:39:05 10° S 04:39:23 10° S 04:39:41 10° SSE visible
27 May - 06:25:36 10° SSW 06:26:49 11° S 06:27:59 10° SSE night (unlit)
28 May - 04:25:56 10° SSW 04:27:26 12° S 04:28:52 10° SSE visible
28 May - 06:13:36 10° SSW 06:14:51 11° S 06:16:05 10° SSE night (unlit)
29 May - 04:13:21 10° SSW 04:15:28 13° S 04:17:27 10° SSE visible
29 May - 06:01:34 10° SSW 06:02:55 11° S 06:04:11 10° S night (unlit)
30 May - 02:15:13 10° S 02:15:52 10° SSE 02:16:30 10° SSE daylight
30 May - 04:00:52 10° SSW 04:03:30 15° S 04:05:54 10° SE visible
30 May - 05:49:33 10° SSW 05:50:56 11° SSW 05:52:15 10° S visible
31 May - 02:01:32 10° SSW 02:03:50 12° SSE 02:05:58 10° SE daylight
31 May - 03:48:26 10° SW 03:51:31 16° S 03:54:16 10° SE visible
31 May - 05:37:30 10° SW 05:38:56 11° SSW 05:40:19 10° S visible
01 Jun - 01:48:34 10° SSW 01:51:47 15° S 01:54:42 10° SE daylight
01 Jun - 03:36:03 10° SW 03:39:30 18° S 03:42:34 10° SE visible
01 Jun - 05:25:27 10° SW 05:26:56 11° SSW 05:28:21 10° S visible
02 Jun - 01:35:47 10° SSW 01:39:43 17° S 01:43:12 10° SE daylight
02 Jun - 03:23:40 10° SW 03:27:29 19° S 03:30:49 10° SE visible
02 Jun - 05:13:25 10° SW 05:14:55 11° SSW 05:16:20 10° S visible
02 Jun - 23:37:55 10° S 23:39:41 11° SSE 23:41:23 10° SE daylight
03 Jun - 01:23:06 10° SW 01:27:38 19° S 01:31:36 10° SE daylight
03 Jun - 03:11:17 10° SW 03:15:26 20° S 03:19:02 10° SE daylight
03 Jun - 05:01:23 10° SW 05:02:52 11° SSW 05:04:16 10° S visible
03 Jun - 23:24:17 10° S 23:27:31 13° SSE 23:30:32 10° SE daylight
04 Jun - 01:10:29 10° SW 01:15:31 21° S 01:19:53 10° SE daylight
04 Jun - 02:58:55 10° SW 03:03:22 21° S 03:07:12 10° SE daylight
04 Jun - 04:49:22 10° SW 04:50:48 11° SSW 04:52:09 10° S visible
04 Jun - 23:11:08 10° SSW 23:15:18 16° SSE 23:19:10 10° SE daylight
05 Jun - 00:57:54 10° SW 01:03:22 24° S 01:08:07 10° SE daylight
05 Jun - 02:46:32 10° WSW 02:51:16 22° S 02:55:20 10° SE daylight
05 Jun - 04:37:24 10° SW 04:38:42 11° SSW 04:39:56 10° S visible
05 Jun - 22:58:13 10° SSW 23:03:04 18° SSE 23:07:35 10° ESE daylight
